Total_Precipitation_Accumulation
0.98 1.01 0.94 0.89 0.84 0.74 0.69 0.67 0.70 0.64 0.56 0.39 0.21 0.11 0.11 0.09 0.07 0.04 0.02 0.02 0.02 0.01 0.01 0.01 0.00 0.00 0.00 0.00 0.00 0.01 0.01 0.01 0.03 0.05 0.11 0.18 0.25 0.28
0.95 1.00 1.00 0.99 0.98 0.89 0.77 0.72 0.65 0.65 0.61 0.50 0.33 0.18 0.20 0.18 0.14 0.08 0.04 0.03 0.03 0.03 0.02 0.01 0.01 0.00 0.00 0.00 0.00 0.00 0.00 0.01 0.01 0.04 0.16 0.38 0.47 0.43
0.83 0.90 1.01 1.05 1.10 1.05 1.00 0.88 0.76 0.73 0.70 0.62 0.45 0.25 0.23 0.24 0.22 0.14 0.07 0.05 0.04 0.03 0.03 0.02 0.01 0.01 0.00 0.00 0.00 0.00 0.00 0.00 0.01 0.03 0.09 0.24 0.53 0.61
0.71 0.73 0.83 0.92 1.01 1.09 1.09 1.04 1.00 0.88 0.85 0.81 0.67 0.45 0.30 0.27 0.22 0.18 0.14 0.10 0.07 0.08 0.09 0.07 0.03 0.02 0.01 0.01 0.00 0.00 0.00 0.00 0.01 0.02 0.04 0.07 0.14 0.27
0.54 0.55 0.58 0.67 0.79 0.93 1.01 1.03 1.06 1.06 1.01 0.92 0.81 0.67 0.45 0.33 0.27 0.22 0.18 0.16 0.13 0.12 0.14 0.13 0.11 0.07 0.07 0.06 0.04 0.02 0.01 0.01 0.01 0.01 0.01 0.02 0.03 0.05
0.38 0.36 0.37 0.41 0.49 0.63 0.78 0.92 1.04 1.09 1.12 1.08 0.92 0.72 0.60 0.50 0.34 0.27 0.27 0.25 0.22 0.20 0.17 0.17 0.18 0.16 0.13 0.10 0.09 0.07 0.05 0.04 0.03 0.02 0.01 0.01 0.01 0.01
0.31 0.23 0.21 0.25 0.29 0.34 0.41 0.60 0.81 0.95 1.00 1.04 0.96 0.79 0.64 0.55 0.44 0.37 0.36 0.36 0.31 0.29 0.28 0.24 0.22 0.19 0.19 0.19 0.17 0.14 0.11 0.10 0.08 0.06 0.04 0.03 0.02 0.02
0.25 0.21 0.21 0.24 0.22 0.19 0.20 0.29 0.46 0.63 0.78 0.90 0.94 0.84 0.71 0.62 0.56 0.49 0.39 0.33 0.29 0.26 0.25 0.28 0.28 0.26 0.28 0.27 0.28 0.27 0.22 0.19 0.16 0.12 0.10 0.08 0.07 0.05
0.29 0.28 0.26 0.24 0.27 0.21 0.20 0.20 0.24 0.27 0.39 0.59 0.75 0.81 0.88 0.76 0.59 0.47 0.39 0.34 0.35 0.35 0.30 0.27 0.27 0.27 0.30 0.30 0.33 0.34 0.33 0.29 0.24 0.21 0.18 0.17 0.16 0.15
0.36 0.36 0.37 0.32 0.30 0.30 0.30 0.34 0.33 0.29 0.35 0.28 0.38 0.66 0.73 0.71 0.63 0.55 0.49 0.43 0.37 0.32 0.30 0.29 0.31 0.30 0.27 0.26 0.29 0.29 0.28 0.28 0.29 0.29 0.30 0.29 0.27 0.24
0.39 0.42 0.41 0.35 0.41 0.37 0.40 0.52 0.51 0.45 0.56 0.54 0.49 0.51 0.51 0.48 0.48 0.51 0.50 0.44 0.39 0.32 0.26 0.22 0.23 0.26 0.27 0.29 0.28 0.28 0.27 0.25 0.23 0.20 0.19 0.18 0.18 0.17
0.47 0.49 0.57 0.48 0.48 0.37 0.32 0.45 0.52 0.48 0.42 0.45 0.41 0.33 0.25 0.26 0.31 0.33 0.46 0.51 0.49 0.40 0.32 0.24 0.23 0.23 0.24 0.24 0.21 0.21 0.20 0.19 0.17 0.16 0.14 0.11 0.10 0.09
0.61 0.66 0.62 0.62 0.43 0.32 0.27 0.30 0.37 0.39 0.41 0.45 0.48 0.41 0.32 0.30 0.27 0.25 0.29 0.35 0.42 0.45 0.39 0.30 0.25 0.23 0.21 0.19 0.19 0.18 0.17 0.15 0.13 0.13 0.14 0.13 0.12 0.10
0.61 0.59 0.52 0.52 0.36 0.26 0.19 0.22 0.22 0.22 0.30 0.42 0.45 0.43 0.42 0.41 0.35 0.31 0.28 0.27 0.29 0.36 0.37 0.30 0.25 0.21 0.18 0.15 0.15 0.17 0.16 0.14 0.11 0.10 0.09 0.10 0.10 0.11
0.39 0.42 0.40 0.32 0.25 0.19 0.16 0.18 0.19 0.20 0.25 0.30 0.36 0.38 0.38 0.39 0.38 0.36 0.32 0.28 0.24 0.21 0.19 0.21 0.23 0.23 0.21 0.17 0.14 0.17 0.19 0.16 0.13 0.11 0.10 0.09 0.09 0.10
0.31 0.29 0.25 0.21 0.20 0.20 0.19 0.17 0.18 0.23 0.27 0.28 0.31 0.34 0.36 0.36 0.36 0.36 0.38 0.39 0.39 0.36 0.32 0.29 0.28 0.29 0.29 0.28 0.24 0.20 0.22 0.22 0.19 0.18 0.16 0.14 0.14 0.14
0.40 0.32 0.26 0.24 0.22 0.24 0.26 0.23 0.23 0.27 0.30 0.29 0.29 0.29 0.29 0.33 0.35 0.32 0.31 0.34 0.36 0.36 0.37 0.37 0.36 0.35 0.35 0.35 0.37 0.36 0.36 0.34 0.32 0.29 0.25 0.20 0.18 0.18
0.41 0.44 0.45 0.48 0.47 0.44 0.40 0.32 0.27 0.26 0.29 0.33 0.32 0.28 0.29 0.29 0.33 0.34 0.31 0.32 0.31 0.30 0.27 0.27 0.30 0.33 0.35 0.34 0.29 0.31 0.37 0.37 0.38 0.37 0.32 0.27 0.22 0.23
0.39 0.52 0.53 0.50 0.45 0.40 0.36 0.31 0.24 0.20 0.19 0.23 0.31 0.35 0.33 0.33 0.36 0.38 0.35 0.31 0.29 0.29 0.28 0.24 0.22 0.24 0.27 0.27 0.27 0.24 0.26 0.30 0.31 0.31 0.30 0.29 0.26 0.27
0.35 0.42 0.41 0.38 0.32 0.23 0.17 0.13 0.13 0.11 0.10 0.10 0.12 0.19 0.30 0.38 0.44 0.47 0.49 0.50 0.47 0.43 0.38 0.31 0.25 0.20 0.20 0.20 0.19 0.17 0.16 0.20 0.25 0.24 0.23 0.24 0.23 0.23
0.16 0.16 0.16 0.16 0.14 0.11 0.08 0.05 0.04 0.04 0.04 0.04 0.05 0.07 0.13 0.25 0.38 0.47 0.51 0.54 0.53 0.53 0.50 0.46 0.41 0.39 0.31 0.29 0.26 0.20 0.17 0.16 0.16 0.15 0.15 0.16 0.16 0.16
0.07 0.07 0.06 0.06 0.06 0.05 0.05 0.04 0.04 0.03 0.04 0.05 0.08 0.12 0.17 0.19 0.22 0.31 0.41 0.45 0.43 0.40 0.41 0.43 0.44 0.43 0.39 0.37 0.35 0.28 0.22 0.19 0.20 0.21 0.17 0.16 0.14 0.13
0.06 0.05 0.05 0.04 0.03 0.04 0.04 0.04 0.03 0.03 0.03 0.03 0.06 0.12 0.18 0.24 0.25 0.24 0.25 0.29 0.33 0.36 0.38 0.38 0.39 0.38 0.39 0.41 0.42 0.38 0.32 0.27 0.26 0.28 0.30 0.37 0.33 0.22